Location: Unspecified
(0.0000°N, 0.0000°E)
Time: 10:01:18
(UTC+02:00)

Daily predictions for brighter satellites

Satellite Brightness Start Highest point End
(mag) Time Altitude Azimuth Time Altitude Azimuth Time Altitude Azimuth
Palapa 6 Rocket 4.1 20:15:42 10° WNW 20:23:04 82° NNE 20:29:05 10° ESE
Helios 1A 4.2 20:22:14 10° SE 20:25:38 24° ENE 20:29:01 10° NNE
Lacrosse 5 rocket 3.4 20:24:43 10° WSW 20:27:56 29° WNW 20:31:10 10° N
Cosmos 44 Rocket 3.5 20:32:45 10° N 20:37:32 50° ENE 20:42:11 10° SE
Cosmos 1400 Rocket 4.4 20:37:09 10° NE 20:39:42 17° E 20:41:09 14° ESE
Cosmos 2333 Rocket 2.5 20:35:16 10° SSW 20:40:55 72° WNW 20:46:31 10° N
Cosmos 1455 Rocket 4.0 20:37:32 10° NNE 20:41:22 29° E 20:45:11 10° SE
Cosmos 1536 2.8 20:38:00 10° N 20:42:01 65° E 20:46:02 10° SSE
MSX 3.8 20:40:57 10° SSE 20:46:41 73° ENE 20:52:23 10° N
Cosmos 1624 Rocket 4.0 20:42:09 10° N 20:47:20 62° ENE 20:52:35 10° SSE
Mugunghwa Rocket 3.9 20:42:46 10° WSW 20:49:06 77° SSE 20:55:30 10° ENE
SJ-6B 2.6 20:50:29 10° S 20:54:13 88° W 20:57:57 10° NNW
Sylda 5 3.4 20:45:05 10° W 20:55:47 46° S 20:58:18 21° ESE
BREEZE-M DEB (TANK) 4.4 20:52:44 10° NNW 20:56:59 72° NE 21:10:10 14° SE
Cosmos 2123 Rocket 3.9 20:51:41 10° S 20:57:55 86° E 21:04:04 10° N
Cosmos 1459 Rocket 3.9 20:52:43 10° N 20:58:58 71° E 21:05:07 10° S
Resurs 01 Rocket 1.7 20:57:28 13° SSE 21:01:15 54° ENE 21:05:35 10° N
Cosmos 1544 Rocket 3.5 20:57:33 10° N 21:01:56 88° W 21:06:19 10° S
Cosmos 2263 Rocket 2.2 20:57:19 10° NNW 21:02:56 84° WSW 21:08:32 10° SSE
Okean 1-7 Rocket 3.5 20:58:47 10° S 21:03:16 90° E 21:07:40 10° N
Sakura Rocket 3.5 21:01:34 10° NW 21:05:04 40° NNE 21:06:44 27° E
Centaur D AC-29 4.2 20:30:07 10° WNW 21:05:40 29° N 21:12:05 10° NE
Cosmos 1452 Rocket 4.4 21:01:20 10° NNE 21:05:49 29° ENE 21:07:03 26° ESE
Cosmos 2100 Rocket 4.0 21:00:09 10° N 21:06:28 89° W 21:12:52 10° S
Cosmos 158 Rocket 3.8 21:01:36 10° SSW 21:06:30 88° ESE 21:11:29 10° NNE
Meteor 2-15 4.3 21:02:17 10° S 21:08:22 82° E 21:14:25 10° N
GPS 2-18 Rocket1 3.8 21:05:22 10° SW 21:08:45 32° SSE 21:08:58 32° SSE
Cosmos 2251 Rocket 3.4 21:04:55 10° S 21:10:09 74° ESE 21:15:25 10° NNE
Cosmos 2016 Rocket 3.9 21:06:56 10° N 21:13:04 63° E 21:18:46 12° SSE
Cosmos 1844 Rocket 4.3 21:13:22 10° NE 21:16:00 17° ENE 21:16:00 17° ENE
Resurs 1-3 3.6 21:15:26 32° SE 21:17:19 60° ENE 21:21:38 10° N
Spot 2 Rocket 3.5 21:15:00 11° S 21:19:59 81° WSW 21:25:01 10° NNW
Cosmos 2237 Rocket 4.2 21:15:51 10° SW 21:20:38 29° WNW 21:25:27 10° NNW
ISS -2.8 21:17:38 10° SSW 21:20:05 46° SSW 21:20:05 46° SSW
Cosmos 1242 Rocket 4.4 21:20:31 10° SSW 21:23:49 32° W 21:27:09 10° NNW
Cosmos 1025 Rocket 2.9 21:25:38 44° SSE 21:26:50 64° E 21:31:11 10° NNE
Delta 198 2.8 21:23:37 10° WSW 21:27:28 86° SSE 21:27:30 85° SE
NOAA 12 4.4 21:22:40 10° S 21:27:51 66° WSW 21:33:01 10° NNW
SWIFT 3.9 21:25:02 10° WSW 21:28:32 24° SSW 21:29:01 23° S
ARIANE 3 DEB 3.1 21:25:41 10° W 21:28:38 52° S 21:28:56 51° SSE
GPS 2-17 Rocket1 3.2 21:24:58 10° WSW 21:29:24 66° NNW 21:30:55 39° NE
ALOS 4.0 21:32:27 18° NE 21:32:27 18° NE 21:34:07 10° NNE
Ariane H10+ 2.4 21:25:00 10° WSW 21:31:14 41° SSW 21:31:14 41° SSW
Cosmos 1975 4.3 21:30:09 10° NNE 21:32:02 25° NNE 21:32:02 25° NNE
Delta 2 Rocket 3.8 21:31:05 10° WNW 21:33:54 39° WSW 21:33:54 39° WSW
SL-16 R/B 3.2 21:41:20 10° SSW 21:46:43 46° WNW 21:52:05 10° N
RESURS DK-1 4.4 21:45:32 10° N 21:46:48 18° NNE 21:46:48 18° NNE
Meteor 1-23 Rocket 4.3 21:55:06 63° NE 21:55:06 63° NE 21:59:51 10° N
Cosmos 1315 Rocket 4.1 21:56:33 10° NNW 21:59:24 38° NW 21:59:24 38° NW
GPS 2-12 Rocket1 3.8 21:57:38 10° WNW 22:01:18 52° WNW 22:01:18 52° WNW
Delta 2 Rocket 4.1 22:06:53 10° WNW 22:14:45 83° SW 22:14:45 83° SW
Meteor 2-4 Rocket 4.3 22:19:55 54° WNW 22:19:55 54° WNW 22:25:22 10° N
ATLAS 3B CENTAUR R/B 4.1 22:17:40 10° NNW 22:23:32 39° NE 22:23:37 39° NE
ARIANE 5 R/B 2.9 22:20:03 10° WNW 23:00:56 - E 22:23:27 67° NNW
